Theta_e
303 303 302 302 303 302 302 302 302 301 300 301 301 300 302 304 304 303 306 310 311 309 308 311 313 310 311 312 312 313 315 315 314 312 312 313 313 313 313 314 314 314 314 314 315 315 315 316 317 318 320 321 321 322 321 320 321 322 322 321 323 326 326 322 319 322 324 322 322 322 322 322 321 322 325 324 325 324 322 327 329 325 322 322 322 319 322
302 302 302 302 302 302 302 302 301 301 301 301 301 302 304 304 304 304 310 314 312 309 310 312 312 312 314 314 313 315 316 316 316 315 315 316 315 314 315 315 314 314 315 315 316 316 315 317 318 318 321 321 321 322 321 320 322 322 322 324 324 323 326 324 319 319 321 320 321 321 321 322 320 322 325 324 326 326 325 333 334 325 322 323 321 319 321
303 303 303 303 303 302 301 301 301 301 300 300 302 302 304 305 306 306 310 313 312 310 311 313 313 313 314 314 314 315 315 316 317 317 317 318 317 317 318 318 317 316 316 316 318 317 316 318 320 320 321 321 322 323 322 323 324 323 325 327 323 325 329 325 319 318 318 318 319 320 321 322 322 323 324 323 326 325 324 328 326 323 327 327 321 319 325
304 304 304 304 304 303 303 302 301 301 300 300 301 302 304 306 307 308 311 314 313 312 313 314 313 313 314 315 315 315 315 316 316 317 317 318 319 319 319 319 319 319 319 319 319 320 319 319 321 322 321 322 324 326 326 327 327 328 331 331 327 332 334 328 323 322 320 320 324 326 326 322 319 322 322 322 324 324 326 326 322 325 329 326 325 327 328
304 304 304 304 304 304 304 303 302 301 300 301 301 303 306 307 307 310 313 313 313 313 314 314 313 313 314 315 315 315 315 316 316 316 317 318 318 318 318 319 320 320 321 321 320 321 320 320 320 321 321 322 323 323 325 327 328 331 336 336 332 331 328 326 328 327 324 325 327 328 326 322 320 322 321 322 324 324 325 323 325 333 327 319 332 344 332
304 304 304 304 304 304 304 304 303 302 301 301 301 304 307 307 308 311 311 310 312 313 313 313 313 314 314 313 313 314 314 315 317 317 317 317 317 318 319 319 320 320 321 321 321 322 322 322 322 321 321 322 321 322 323 326 328 329 331 334 334 328 323 323 326 325 325 325 325 326 326 324 322 323 322 323 324 324 323 324 329 336 326 319 338 353 340
304 304 304 304 304 304 304 304 303 303 301 301 302 303 306 307 308 309 308 309 310 310 311 312 313 313 312 312 313 314 315 316 316 315 316 317 316 317 319 319 319 319 320 321 324 325 324 323 324 324 324 323 323 323 323 325 329 329 327 332 332 326 326 328 324 322 324 324 324 325 325 324 323 323 324 324 324 324 324 325 328 332 328 325 340 352 345
303 304 304 304 304 304 303 303 303 303 302 302 301 302 305 306 305 306 306 306 307 308 310 312 312 311 311 311 312 313 314 315 313 313 314 316 316 317 318 319 318 317 318 320 323 324 323 323 324 325 325 325 326 326 326 327 330 329 327 331 330 325 328 332 325 320 322 323 323 324 323 323 322 322 324 324 324 324 324 325 328 330 330 330 337 346 344
303 303 303 304 304 304 303 303 303 303 303 303 302 302 303 303 302 303 305 305 307 309 310 311 310 309 310 311 312 312 312 312 311 312 313 314 316 316 316 315 315 315 317 319 321 322 320 319 321 322 322 325 326 326 327 327 330 333 331 328 330 329 328 330 326 321 321 322 323 323 322 322 321 320 323 324 322 323 324 325 328 328 331 333 333 334 336
303 303 303 303 303 304 304 303 303 303 303 303 303 303 303 302 301 302 304 305 306 307 308 308 308 308 310 312 312 310 310 310 310 312 314 315 315 315 314 313 313 314 317 320 320 319 316 316 317 318 320 322 322 324 326 325 329 339 338 331 331 332 329 328 326 322 321 324 323 321 321 320 319 320 324 324 324 325 324 325 329 329 330 331 329 328 334
303 303 303 303 303 303 304 303 303 303 303 303 303 303 303 302 302 302 303 304 305 307 308 308 308 308 309 310 310 309 309 309 310 312 313 313 313 314 313 312 312 314 317 318 317 314 314 316 318 318 319 321 322 323 325 325 327 334 337 333 332 333 330 330 329 323 322 324 323 322 320 318 320 326 328 325 325 326 324 325 329 329 331 335 335 336 343
303 303 303 303 303 303 304 303 303 303 303 303 303 303 303 303 302 301 302 303 304 306 307 307 308 309 309 309 309 309 309 310 310 311 311 311 312 313 313 312 313 316 317 316 313 313 317 321 321 319 319 320 321 322 324 327 328 329 332 332 332 332 331 332 330 325 324 325 322 320 319 321 327 334 333 328 325 325 328 334 337 335 334 338 339 339 344
303 303 303 303 303 303 304 303 303 303 303 303 303 303 303 303 303 302 302 302 302 303 304 305 307 308 308 309 309 309 310 310 310 310 310 311 311 312 312 312 313 315 314 312 312 314 321 326 326 324 323 322 323 325 326 328 329 329 331 331 331 331 331 331 329 326 325 324 321 321 323 327 332 334 331 329 327 327 328 332 336 337 336 336 338 337 341
302 302 303 303 302 303 303 303 302 302 303 303 303 303 303 303 303 303 302 301 302 303 304 304 306 307 307 308 309 309 310 310 309 310 311 311 311 311 311 312 312 312 311 311 314 319 324 327 328 328 328 328 328 329 329 328 327 328 329 329 330 331 332 331 328 327 326 323 321 324 327 329 331 334 333 332 330 330 330 329 333 336 335 335 337 340 339
302 302 302 302 302 302 303 303 302 302 302 303 303 303 303 303 303 303 302 302 302 302 303 304 305 307 308 309 309 309 308 308 309 310 311 311 311 311 311 311 311 312 313 313 318 325 327 328 328 328 328 328 328 329 331 329 327 328 328 329 331 332 334 333 329 327 327 324 322 324 324 325 330 334 334 333 331 332 335 334 334 335 334 334 335 337 338
302 302 302 302 302 303 302 302 302 302 302 302 302 303 303 303 304 303 303 302 302 302 303 304 306 307 307 307 308 307 307 308 309 310 311 311 311 311 311 310 311 315 317 317 321 326 327 328 329 327 327 327 326 328 332 329 328 329 329 329 330 330 333 334 329 327 328 325 324 324 323 326 334 335 332 332 331 333 333 330 331 335 335 334 334 335 336
302 302 302 302 302 302 302 302 302 302 302 302 302 303 303 303 304 304 303 302 302 302 303 303 304 305 305 305 306 307 308 309 309 309 310 310 310 310 310 309 312 317 320 323 326 327 327 329 329 327 329 330 327 327 330 329 328 329 331 334 336 333 334 334 328 327 330 328 325 325 326 331 335 333 331 331 331 334 331 325 329 337 336 334 335 335 335
302 302 302 302 302 302 302 302 302 302 302 302 302 302 303 304 304 304 303 303 303 303 303 303 303 304 305 305 306 308 309 309 309 309 309 309 310 311 309 309 311 315 319 325 329 329 327 329 329 327 329 330 327 328 330 328 327 329 333 341 344 339 337 335 329 326 330 330 328 328 330 334 334 330 331 332 331 331 328 326 332 338 336 335 337 336 336
302 302 302 302 302 302 302 302 302 302 302 302 302 302 304 304 304 303 303 303 303 303 303 303 303 304 305 305 306 307 308 308 308 308 307 309 310 309 309 310 312 313 316 323 328 329 329 329 329 328 329 330 330 330 330 328 329 331 332 335 337 336 336 338 334 329 331 331 329 328 329 332 331 330 331 333 331 330 331 332 335 337 336 337 338 337 338
302 302 302 302 302 302 302 302 302 302 302 302 302 303 303 304 304 303 303 303 303 303 303 303 303 303 304 304 305 306 307 307 307 307 307 309 310 308 310 316 315 311 314 323 327 327 328 329 328 328 329 331 332 331 331 331 331 333 332 332 333 333 335 340 339 334 333 333 331 330 332 331 330 331 333 335 335 335 335 335 334 334 335 335 335 335 336
302 302 302 302 302 302 302 302 302 302 302 302 302 303 303 303 303 303 303 303 303 303 303 303 304 304 304 305 305 306 306 306 307 308 308 309 309 307 309 313 312 309 314 323 326 324 324 325 326 326 327 329 330 330 332 332 330 332 335 333 334 334 334 339 341 337 336 338 335 333 333 331 329 331 335 337 336 335 334 332 331 331 331 331 331 331 331
302 302 302 302 302 302 302 302 302 302 302 302 302 303 303 303 303 303 303 303 302 303 303 303 303 303 303 303 304 304 305 305 306 307 308 309 308 307 307 309 309 309 313 320 323 323 321 320 323 326 327 328 329 330 332 331 329 333 334 332 334 337 336 338 339 336 336 339 338 335 332 330 329 330 332 332 331 330 329 329 329 329 328 328 328 328 327
302 302 302 302 302 302 302 302 302 302 302 302 302 303 303 303 303 303 303 303 303 303 303 303 303 303 302 302 302 303 304 304 304 305 306 306 306 306 307 309 309 309 312 317 320 321 320 319 321 325 326 326 327 329 332 332 331 332 334 332 333 334 335 336 338 336 333 334 335 334 332 329 328 329 329 328 328 327 327 328 328 327 326 326 327 327 326
302 302 302 302 302 302 302 302 302 302 302 302 302 303 303 303 303 303 303 303 303 303 303 303 303 304 303 303 303 304 304 305 304 304 304 305 305 307 309 309 309 310 312 314 314 317 319 319 320 322 324 325 325 326 330 333 331 329 332 333 332 331 332 334 337 337 334 332 333 333 331 328 327 328 329 328 327 327 326 326 326 325 325 326 326 326 326
302 302 302 302 302 302 302 302 302 302 302 302 302 303 303 303 303 303 303 303 303 303 303 303 303 303 303 303 304 304 304 304 305 305 305 306 306 307 310 310 310 311 312 311 311 314 316 318 320 321 322 324 324 323 326 329 327 327 329 329 329 329 329 330 334 337 337 336 334 330 328 326 325 327 329 328 327 326 324 324 324 324 324 325 325 325 325
302 302 302 302 302 302 302 302 302 302 302 302 302 303 303 303 303 303 303 303 303 302 302 302 303 303 303 302 302 303 303 303 304 304 305 306 306 307 309 309 310 310 310 309 310 311 312 315 319 321 322 324 325 325 325 326 326 327 327 324 323 324 327 330 334 335 335 335 332 328 328 328 326 326 327 326 325 324 323 323 323 322 323 323 323 324 325
302 302 302 302 302 302 302 302 302 302 302 302 302 303 303 303 303 303 303 302 302 302 302 302 303 303 302 301 302 303 304 305 304 304 304 305 306 307 308 308 309 310 310 309 310 311 313 315 318 322 325 326 325 325 326 325 324 325 324 321 321 324 327 330 333 333 333 333 329 329 333 335 330 326 325 325 323 323 323 323 323 323 323 323 323 323 323
302 302 302 302 301 301 302 302 302 302 302 302 302 302 302 302 302 302 302 302 302 302 302 302 302 302 302 303 304 306 306 306 307 306 306 307 307 307 308 308 309 310 310 310 311 313 314 314 317 323 328 327 325 326 327 324 323 324 322 320 320 323 324 326 329 331 332 331 328 328 331 332 328 325 325 324 324 324 324 323 323 323 323 324 324 324 324
302 302 302 302 301 302 302 302 302 302 302 302 302 302 302 302 302 302 302 302 302 302 302 302 302 303 304 305 305 306 307 307 308 308 308 309 309 309 309 310 310 310 310 311 311 311 312 312 315 322 325 324 324 327 326 323 323 323 321 319 320 321 322 323 325 327 327 327 326 326 326 325 324 323 323 323 323 324 324 323 323 323 322 322 322 322 322
302 302 302 302 302 302 302 302 302 302 302 302 302 302 301 302 304 304 303 302 302 301 302 303 304 305 305 306 306 307 308 309 309 309 309 309 310 311 311 311 311 311 311 311 311 311 312 312 315 318 320 320 324 327 325 322 323 322 319 318 319 321 323 323 323 324 324 324 324 323 323 322 322 321 321 321 322 323 323 323 323 324 323 322 321 320 320
302 302 302 302 302 302 302 302 302 302 302 302 301 302 302 303 304 303 302 302 302 302 302 303 304 305 306 306 307 308 309 310 310 311 311 310 311 311 311 312 311 311 311 311 310 311 312 314 316 318 319 320 323 325 323 323 323 321 319 319 319 320 323 323 321 321 322 322 321 321 320 320 320 320 320 319 320 320 320 320 321 321 321 320 320 320 320
302 302 302 302 302 302 302 302 301 301 302 301 301 302 302 302 302 302 302 303 303 303 302 303 304 306 306 307 307 308 310 311 312 312 312 311 311 311 311 311 311 310 310 310 311 312 314 316 318 319 320 319 320 321 321 321 321 319 318 319 318 319 321 322 321 320 321 321 321 321 321 320 319 319 318 318 318 318 318 318 318 318 318 319 319 319 319
301 302 302 302 302 302 301 301 301 301 301 301 301 301 301 300 301 301 302 303 303 302 302 304 305 306 306 306 308 310 312 312 312 312 312 311 311 311 310 310 310 310 310 311 313 313 314 317 319 320 320 319 320 320 319 319 319 318 318 318 318 318 320 320 321 321 321 320 320 321 320 319 318 317 318 318 318 318 318 318 319 319 319 319 319 318 318
301 301 301 301 301 301 301 301 301 301 300 300 300 301 302 302 303 303 303 303 303 303 303 304 305 305 305 307 310 311 312 312 312 312 311 311 310 310 310 309 309 310 312 313 314 315 316 318 320 320 320 319 319 320 319 319 319 318 317 316 317 318 319 319 320 320 320 320 320 320 319 318 318 318 319 319 319 319 319 319 319 319 319 318 319 319 319
301 301 301 301 301 301 301 301 301 301 301 302 302 303 304 304 304 305 305 305 304 304 305 305 305 305 305 308 312 312 311 312 312 311 312 312 310 310 311 311 311 311 311 313 316 319 319 320 320 320 319 319 320 320 319 318 318 318 318 317 316 317 318 318 318 318 319 319 320 319 318 318 318 318 318 318 318 318 317 316 317 317 317 317 318 318 318
301 300 300 301 302 302 302 302 302 302 304 304 305 305 305 305 305 306 306 305 305 305 306 306 306 305 306 309 311 311 310 312 312 310 311 313 312 311 312 311 312 313 314 317 319 320 319 320 320 319 318 319 320 319 318 318 318 318 318 317 316 316 316 317 317 317 317 318 319 318 317 317 317 317 316 317 317 317 317 317 317 317 317 317 317 317 317
300 300 301 302 303 304 304 304 304 304 305 305 305 305 306 306 306 306 306 305 305 305 305 305 305 305 306 307 308 308 310 313 313 311 312 314 314 313 313 313 315 317 319 320 320 319 319 320 319 318 318 319 319 319 318 318 318 318 317 317 316 316 316 316 316 316 316 317 317 317 316 316 316 316 316 316 316 316 316 317 317 317 317 317 317 317 317
301 301 302 303 304 304 305 305 304 305 305 305 305 305 306 306 306 306 306 305 305 305 305 304 304 305 305 306 306 307 308 312 313 313 313 314 314 313 314 316 318 319 320 319 319 319 320 320 319 318 318 318 318 318 318 318 318 317 317 317 316 316 316 316 316 316 317 317 317 316 316 316 316 316 316 317 317 316 317 317 318 318 318 318 318 318 318
302 302 303 303 303 304 304 304 304 305 305 305 305 305 306 306 306 306 306 306 306 306 305 305 305 305 305 305 307 307 307 310 314 315 314 314 314 313 314 317 319 319 319 319 319 319 320 319 319 319 318 318 318 318 318 318 318 317 317 317 317 317 317 317 316 316 317 318 317 317 317 317 317 317 317 317 317 317 318 318 318 318 318 317 317 317 317
302 303 303 303 304 304 304 305 305 305 305 305 305 305 306 306 306 307 307 307 307 307 307 307 307 306 305 305 307 308 308 310 314 316 316 315 314 314 316 318 319 320 320 320 320 320 320 319 319 319 319 318 318 318 318 318 318 318 317 317 317 317 317 317 317 317 317 317 317 317 317 317 317 317 318 318 317 318 318 318 317 317 317 317 317 317 317
303 303 303 304 304 305 305 305 306 305 305 305 305 305 306 306 307 308 308 308 309 309 309 309 311 310 308 306 306 307 308 310 312 314 316 316 314 316 319 319 318 320 321 320 320 320 320 319 320 320 319 319 319 319 319 319 318 318 318 317 317 318 318 318 318 318 318 317 317 317 317 317 317 317 317 317 317 317 317 317 317 317 316 317 317 318 319
303 303 303 304 304 305 305 306 306 306 306 306 305 305 305 305 306 307 308 308 309 310 310 311 312 311 310 309 308 308 310 311 312 315 317 316 315 317 318 317 318 321 321 319 320 320 320 320 320 320 319 319 319 319 319 319 318 318 318 317 317 317 317 317 317 317 317 317 317 317 317 316 316 316 316 316 316 317 317 317 317 317 317 318 319 320 320
304 304 304 304 304 304 305 305 304 305 306 306 305 305 306 306 306 308 309 309 310 311 311 311 311 310 310 310 311 311 312 312 313 315 316 316 315 316 318 318 319 321 320 319 320 321 320 320 320 319 319 319 319 319 319 319 318 318 317 317 316 316 316 316 316 316 317 317 317 317 316 316 315 315 316 316 316 317 317 317 317 317 318 319 320 320 321
304 304 304 304 304 304 305 305 304 305 307 307 306 306 308 308 307 308 310 310 311 312 312 311 311 311 311 312 313 313 313 313 314 316 317 316 314 315 318 319 317 316 317 320 321 321 320 319 319 319 319 319 319 319 319 318 318 317 317 316 316 316 316 315 315 315 316 316 317 316 316 316 315 316 316 317 317 317 317 317 317 318 319 319 320 320 320
304 303 303 304 304 304 306 306 305 306 307 308 307 307 308 308 308 309 309 309 310 311 311 310 311 312 313 313 313 314 314 314 315 316 316 315 313 314 316 317 315 314 317 320 321 320 320 319 319 319 319 319 318 318 317 317 317 317 316 316 315 316 316 316 316 316 315 316 316 316 316 316 316 316 316 317 317 317 317 317 317 318 318 319 319 320 320
304 302 302 303 304 305 305 306 306 305 305 306 306 307 307 308 308 309 309 308 308 310 311 310 311 313 314 314 314 313 313 314 316 315 314 315 315 315 315 315 315 317 320 321 321 320 319 317 317 319 319 318 317 317 317 317 317 317 316 316 315 315 315 316 316 316 316 316 316 316 316 316 316 316 316 316 317 317 317 317 317 317 317 317 318 319 320
304 303 302 303 305 305 305 305 305 304 303 303 304 305 306 307 308 308 308 307 308 310 311 311 312 313 312 312 313 313 312 313 315 314 313 315 317 316 315 315 315 317 320 320 320 319 317 315 316 318 318 317 317 317 316 316 317 317 316 316 315 315 315 316 316 316 316 316 316 317 316 316 316 316 316 316 316 316 316 317 316 316 316 316 316 317 319
304 304 304 305 305 305 305 305 304 303 303 304 305 305 306 307 307 308 308 308 309 311 311 312 313 314 313 312 313 314 313 313 314 314 313 315 316 315 315 316 316 317 319 319 318 317 317 316 316 317 317 317 316 316 315 315 315 316 316 316 315 315 315 316 315 316 316 316 316 316 316 316 316 316 316 316 316 316 316 317 317 317 317 317 317 317 319
304 305 305 305 305 305 305 305 304 305 306 306 305 305 307 309 309 309 308 309 310 311 310 310 312 313 312 311 311 312 313 314 315 314 313 315 316 315 316 317 318 318 319 318 317 317 318 317 316 316 317 316 315 315 314 314 314 314 315 316 315 315 315 315 316 316 316 316 315 315 315 315 316 316 316 316 317 316 317 317 317 317 317 317 317 317 318
305 305 305 305 306 307 307 306 306 307 308 307 306 307 308 309 309 309 309 310 310 311 311 310 310 310 310 311 313 313 313 313 315 315 315 316 317 316 316 318 318 318 318 318 318 318 317 317 316 316 316 315 315 315 315 314 313 313 313 314 315 315 315 315 315 316 315 315 315 315 314 315 315 315 315 316 316 317 317 317 317 317 317 317 317 317 317
305 305 305 306 307 307 308 308 307 308 308 308 308 308 308 308 309 309 310 311 312 312 312 312 311 311 312 313 314 313 313 314 316 317 317 316 317 317 317 318 318 318 318 318 317 316 316 315 315 315 315 315 315 314 314 314 314 313 312 312 313 314 315 315 315 315 315 315 315 314 314 314 314 314 314 314 315 316 317 316 315 315 315 315 315 315 315
306 306 306 307 307 307 308 308 308 308 308 308 308 308 308 309 309 310 311 312 312 313 312 312 312 313 313 312 312 312 314 316 317 318 317 316 315 316 318 318 318 318 318 317 316 315 314 314 314 315 315 315 315 315 314 314 314 314 313 312 311 312 313 314 315 315 315 315 315 315 314 314 314 314 313 313 313 315 316 315 315 315 314 314 313 313 313
Wind_Speed
26 26 26 25 25 26 26 26 27 27 27 26 25 23 15 8 12 14 11 11 8 2 4 3 4 5 6 7 8 7 5 4 4 4 5 6 5 5 6 6 7 7 7 8 7 7 7 8 9 8 7 8 10 9 6 7 7 6 5 7 8 4 2 5 7 6 7 7 5 2 2 7 11 12 12 12 12 13 12 6 4 5 6 4 3 6 5
25 24 24 24 24 25 25 25 24 24 24 22 22 19 12 12 19 14 5 6 3 3 3 3 3 4 5 6 8 8 7 6 6 6 5 5 4 4 5 6 8 8 7 8 9 7 7 8 10 9 6 5 9 13 9 4 4 6 4 5 8 5 3 5 6 6 6 7 8 6 4 6 8 8 10 13 15 15 8 2 3 6 9 11 8 7 5
22 22 22 22 22 23 23 22 22 22 21 19 18 15 12 12 13 9 6 7 3 4 3 3 2 4 5 5 7 8 8 8 10 11 8 7 6 4 4 5 5 5 5 6 8 9 8 7 6 6 6 4 5 7 7 5 5 8 10 8 9 6 5 7 8 9 9 9 10 8 5 5 5 6 9 13 17 18 9 3 4 7 8 11 10 7 4
20 20 20 20 20 20 19 19 19 21 19 17 16 12 9 7 5 5 7 6 4 6 2 4 4 4 5 5 5 5 6 6 10 12 10 10 10 7 6 5 4 6 8 8 9 11 11 9 6 5 6 4 2 2 3 5 7 11 13 12 9 2 3 9 11 11 11 10 9 6 5 6 8 9 12 12 15 17 11 5 7 5 4 7 9 7 6
19 18 18 18 18 18 18 17 18 20 18 16 15 10 5 3 2 3 5 5 4 3 1 5 6 5 5 4 3 5 7 5 5 8 8 7 9 8 7 8 8 7 7 7 8 9 11 12 10 9 9 6 6 9 11 10 8 8 9 10 9 2 5 13 15 14 15 15 14 11 10 12 13 13 15 15 15 17 15 13 10 7 5 9 8 7 9
18 17 17 17 17 17 17 16 17 19 17 14 12 8 4 4 4 5 6 4 3 2 5 8 9 7 6 4 5 8 9 7 4 4 4 4 6 7 5 10 12 7 3 2 4 4 5 9 10 8 9 8 8 11 11 8 4 5 7 4 5 3 7 13 16 17 18 20 19 13 12 13 14 15 17 17 17 18 18 17 12 9 8 12 7 8 10
19 18 17 17 17 17 16 15 16 17 16 13 9 6 6 5 6 7 6 5 6 9 11 12 10 8 6 4 6 8 9 7 5 3 5 5 4 7 7 8 7 2 1 0 2 3 3 6 6 4 7 8 7 8 8 5 3 3 5 1 2 2 5 6 11 16 18 21 20 14 13 13 13 15 17 16 18 20 20 20 17 14 15 15 9 10 12
21 20 19 18 18 17 15 14 14 15 14 12 7 4 5 5 5 6 7 7 10 13 11 9 7 6 6 5 5 5 5 5 7 6 6 5 2 3 4 3 2 3 2 2 5 6 3 4 4 3 4 5 5 5 4 2 1 3 4 3 1 2 3 1 5 9 13 17 17 14 15 16 15 17 16 15 16 17 18 17 14 13 15 13 10 10 10
22 22 21 20 19 17 15 13 13 13 12 10 7 3 4 6 6 7 7 7 8 9 7 6 5 5 5 4 2 4 3 5 10 9 8 10 8 4 3 6 7 4 3 5 6 5 3 6 9 9 8 7 5 3 2 2 3 2 3 4 2 2 2 0 2 5 8 10 14 15 15 15 17 19 17 15 14 13 13 11 9 10 12 9 6 7 7
23 23 22 21 20 18 15 13 12 11 11 9 8 5 5 6 6 5 6 5 6 6 6 5 5 4 3 2 4 5 6 7 10 7 5 8 9 5 8 10 8 6 5 4 4 6 9 14 18 18 16 15 14 11 9 7 5 0 2 4 4 2 2 2 1 5 7 7 10 13 11 10 12 14 15 15 12 11 11 10 10 13 13 9 7 8 8
23 23 22 21 20 18 16 13 12 12 11 10 10 9 6 5 4 3 4 5 6 6 5 4 5 3 4 7 7 8 10 10 7 5 5 6 7 9 12 11 8 6 5 5 11 17 21 24 24 20 18 18 17 15 12 10 7 5 4 1 4 3 3 3 1 4 7 5 4 6 7 9 8 7 11 16 16 16 15 11 11 13 11 6 4 6 6
22 22 22 20 19 18 16 14 13 13 13 12 12 11 9 6 4 3 3 5 5 5 4 5 6 7 10 12 10 10 13 11 9 9 10 12 16 16 13 10 7 4 6 15 23 25 22 18 14 11 12 16 15 13 11 10 10 9 8 5 3 5 4 3 2 3 4 1 3 6 8 8 4 1 4 10 15 18 15 6 4 7 7 4 5 7 6
22 21 21 20 18 17 16 15 14 14 14 14 13 13 11 9 6 3 4 5 5 5 6 8 11 13 15 14 11 11 13 14 14 15 13 14 17 15 9 7 9 9 16 24 23 17 11 7 5 5 7 9 9 9 13 13 11 9 9 8 3 6 5 2 2 3 2 1 4 6 5 1 1 1 2 3 6 10 9 4 2 4 5 6 8 9 5
22 21 20 19 18 17 16 15 14 14 14 15 15 14 13 11 8 5 5 5 5 6 8 8 8 10 11 10 10 10 12 14 14 12 10 11 15 13 8 8 12 17 21 19 12 6 3 3 4 4 5 6 5 6 9 11 10 10 8 8 5 5 5 2 3 2 2 3 4 3 3 3 3 2 3 3 2 5 7 7 6 4 3 6 7 7 5
22 21 20 19 18 17 16 16 15 15 15 15 16 16 14 13 11 8 6 5 6 8 9 9 7 7 7 8 9 8 9 9 8 9 11 11 12 11 10 12 17 19 15 9 4 2 1 2 4 4 5 5 5 3 4 4 6 8 8 9 8 5 3 1 3 2 1 3 4 3 6 6 4 3 3 1 3 3 4 5 5 4 2 6 7 7 7
20 20 19 19 18 17 16 16 15 16 16 15 15 16 16 14 14 12 9 7 5 5 6 8 9 10 10 10 11 9 8 6 6 8 8 6 7 13 18 21 17 10 6 5 4 1 1 2 3 5 5 5 5 3 3 3 4 5 7 11 10 4 1 0 3 2 1 2 5 5 6 4 1 2 2 3 4 3 3 6 6 3 1 3 6 7 7
19 19 19 18 18 17 16 16 16 16 16 15 15 16 17 17 16 14 11 9 9 11 14 16 16 14 9 7 8 8 7 6 7 6 4 6 11 15 22 24 13 4 4 4 3 2 3 4 3 4 5 3 3 3 3 4 5 6 7 7 7 4 1 2 5 3 1 1 4 5 4 1 3 5 7 7 5 2 6 8 5 2 2 2 4 5 6
20 19 19 17 16 16 16 16 16 15 15 15 14 16 16 16 16 14 12 10 10 12 17 18 17 15 10 8 9 9 7 7 7 5 6 9 8 10 18 20 10 4 7 4 2 3 4 4 3 4 4 2 2 3 3 4 5 6 6 5 4 3 1 3 5 3 0 1 3 5 3 1 4 10 12 8 2 5 8 7 2 3 3 2 3 8 9
19 19 18 16 15 15 15 15 15 15 15 14 14 14 14 14 14 13 13 13 11 12 14 13 14 17 16 13 13 12 9 9 9 7 6 5 5 14 19 12 3 5 7 3 1 2 3 4 2 1 3 3 2 2 2 3 3 4 7 7 4 4 2 2 3 3 1 0 3 5 2 3 10 18 15 5 3 4 4 3 3 5 8 10 11 13 16
19 19 17 15 14 15 15 15 14 14 14 13 13 13 14 14 13 14 14 14 14 18 22 19 20 24 22 18 17 16 14 13 11 7 5 5 8 17 12 2 2 7 6 2 0 1 1 1 1 1 2 2 1 3 2 2 2 2 5 7 6 7 5 1 2 2 0 1 2 5 3 4 18 21 11 3 1 2 6 8 7 10 15 18 17 16 18
17 18 17 15 14 14 14 14 13 13 13 12 11 12 14 14 13 13 14 15 15 16 17 13 14 18 19 18 19 18 16 16 14 10 9 10 9 8 3 3 6 6 3 3 2 0 1 2 1 1 2 2 2 3 2 2 3 1 0 2 5 7 7 3 1 2 1 1 1 2 2 9 19 16 3 4 7 9 10 9 9 13 18 21 20 20 23
16 16 16 15 14 13 13 12 12 12 13 12 11 12 13 13 12 10 11 14 18 20 18 17 19 24 26 25 25 24 24 24 22 17 15 15 13 9 10 13 11 6 4 5 3 0 2 2 1 1 2 2 2 3 3 2 3 0 2 1 2 2 4 6 4 1 1 2 1 4 7 12 16 13 8 10 15 18 14 12 12 15 20 24 24 25 28
15 15 15 14 13 12 12 11 11 11 12 11 11 12 13 13 12 10 11 14 19 22 24 24 27 30 32 31 28 26 24 24 26 27 26 22 17 15 16 16 11 8 6 4 3 2 3 2 2 2 2 2 3 3 3 1 1 3 2 1 3 3 4 7 6 3 2 5 1 5 7 11 15 14 11 10 13 16 16 17 18 18 21 25 24 23 25
15 15 14 13 12 10 10 10 10 10 11 11 10 11 12 13 11 10 11 13 14 17 18 18 19 20 20 19 16 14 14 16 20 24 26 26 19 12 11 13 11 8 4 5 7 5 3 2 3 2 1 2 3 3 3 1 3 4 3 2 3 4 6 4 5 8 5 4 3 2 5 9 12 10 9 10 13 16 18 21 22 22 24 25 24 23 23
14 13 13 13 11 10 9 9 9 9 9 9 9 10 11 12 11 10 11 10 11 11 9 12 17 18 14 14 13 13 14 15 15 15 17 23 26 21 14 10 7 7 6 10 12 9 4 3 3 1 1 1 2 1 3 2 3 4 4 3 2 6 11 6 7 10 4 4 7 5 3 4 7 6 5 8 14 20 21 21 22 23 25 25 25 24 23
12 12 11 11 11 9 8 8 8 8 8 9 9 10 11 12 11 11 11 12 12 11 9 11 16 15 15 20 22 19 17 17 17 18 19 21 26 27 24 21 18 16 16 17 15 8 2 3 3 2 2 1 2 0 2 2 3 3 4 6 8 10 10 4 5 7 5 6 7 7 6 3 4 3 4 9 16 22 23 23 24 26 28 29 29 28 26
11 11 10 9 9 8 8 8 8 8 8 8 9 10 12 13 12 12 13 11 10 8 7 10 15 20 27 29 21 13 11 12 15 18 21 22 23 24 26 27 27 23 18 14 12 7 5 4 4 4 2 1 1 1 1 1 2 1 3 9 13 8 4 1 4 6 5 7 12 12 8 4 2 4 6 11 19 24 23 23 24 25 26 27 27 27 26
9 9 8 8 8 7 7 7 7 7 7 8 9 11 13 14 14 15 15 14 13 10 10 15 23 28 29 22 11 6 7 8 11 16 19 21 22 24 25 26 26 22 14 8 5 5 4 4 4 3 2 2 2 1 1 1 2 2 3 9 12 8 7 6 3 2 2 10 19 17 10 8 10 12 11 13 20 24 23 23 24 23 22 22 22 22 22
8 7 6 7 7 6 6 6 6 7 7 7 9 12 13 14 14 14 13 13 14 14 14 17 20 19 17 17 15 11 6 5 9 14 16 16 18 20 22 24 24 21 14 7 5 4 4 6 6 4 2 3 3 2 1 1 2 2 6 13 16 14 11 8 7 5 4 11 16 15 15 17 17 16 15 17 20 22 23 23 23 22 21 22 23 24 23
7 6 6 6 6 6 6 6 6 6 7 8 9 11 10 8 7 8 9 9 10 11 10 10 9 12 18 22 18 10 4 2 6 10 14 16 17 18 18 19 20 19 13 8 6 5 4 6 6 4 3 4 2 1 2 2 2 2 9 18 20 19 13 8 5 5 11 17 18 19 24 26 22 20 20 21 22 22 21 20 18 17 17 18 20 21 20
6 6 6 6 5 5 6 5 5 7 7 8 8 6 4 3 3 2 7 8 6 4 7 7 10 14 18 18 15 14 10 5 4 8 12 15 15 16 16 16 16 14 12 9 7 6 5 5 4 1 2 3 2 2 2 2 3 2 10 17 19 18 16 15 18 21 23 25 28 28 28 26 24 21 20 21 24 24 23 22 21 20 19 20 19 18 16
6 5 5 5 4 5 6 6 7 7 7 9 9 8 7 6 4 3 6 5 4 8 7 6 8 8 7 11 17 17 8 3 6 6 9 12 14 14 14 14 13 11 9 7 6 4 4 3 1 1 3 3 3 3 4 3 3 3 9 14 16 19 21 20 23 25 23 23 25 24 19 19 21 20 17 19 21 22 22 22 22 21 21 20 19 17 16
5 6 5 5 6 7 7 8 8 8 9 11 11 10 8 7 6 8 11 10 10 10 7 4 5 4 5 13 18 13 5 2 6 7 7 9 12 11 11 12 11 10 9 6 4 3 3 1 1 3 6 7 4 3 5 5 5 6 9 12 15 21 26 26 27 27 25 23 23 19 14 14 17 16 16 17 18 18 18 17 16 15 16 15 15 14 13
5 5 6 6 7 7 8 8 9 9 10 11 8 3 2 2 3 7 11 12 9 7 5 4 4 4 7 11 9 7 8 4 5 8 5 7 11 10 9 10 9 8 8 6 3 3 2 1 2 2 4 6 5 4 5 7 7 8 10 12 13 16 21 24 26 25 21 20 22 20 16 15 15 14 13 14 14 13 12 11 10 9 9 9 10 10 9
5 6 7 7 6 7 8 7 7 7 7 5 1 2 2 3 3 4 6 9 7 4 3 3 3 3 6 6 2 5 12 7 5 7 4 8 11 8 6 6 4 3 4 3 1 2 1 2 3 2 2 4 4 4 5 6 7 8 10 11 11 11 12 14 16 16 14 14 17 18 16 14 14 12 11 11 11 10 10 9 9 8 7 7 7 7 7
7 7 6 5 6 7 6 3 2 2 2 1 1 1 2 5 5 3 3 7 7 6 3 2 2 2 4 4 3 7 13 7 3 4 4 7 8 6 6 5 2 1 3 2 1 2 3 4 2 3 4 4 5 5 5 6 7 8 9 10 11 9 8 8 8 9 10 12 15 16 15 14 13 10 8 9 10 9 8 8 8 7 7 7 6 6 6
7 6 6 6 6 5 2 1 2 3 2 1 1 2 2 4 5 4 3 5 8 8 6 3 3 4 4 3 4 8 10 5 2 2 3 5 5 4 5 3 2 3 3 3 3 3 5 5 4 5 6 5 6 8 8 7 8 8 9 9 9 7 7 9 11 12 12 12 12 11 10 9 9 7 6 6 6 6 6 7 8 8 7 7 6 6 5
7 7 8 7 5 2 2 4 6 4 3 3 4 3 2 2 3 3 3 3 4 6 6 4 4 5 3 3 6 9 8 4 3 1 3 4 3 3 3 2 3 3 2 4 4 3 4 5 5 5 6 6 9 10 9 7 7 7 7 7 8 6 4 7 9 10 8 7 6 5 4 4 4 4 4 5 5 4 3 5 6 7 7 7 7 6 6
8 9 8 7 5 3 4 6 6 4 3 4 4 2 1 1 1 2 2 2 2 4 4 4 5 5 4 4 8 10 7 3 3 2 2 4 3 2 2 2 2 2 3 3 2 2 3 4 4 4 5 5 7 9 9 8 7 6 5 5 6 6 6 6 6 5 4 3 5 6 5 3 3 4 4 5 5 5 5 5 6 6 7 7 7 7 7
9 10 9 7 6 5 5 6 5 3 2 2 2 1 1 2 2 2 2 2 2 3 4 4 5 6 6 6 5 6 4 3 3 3 0 1 0 0 2 2 1 2 3 3 2 2 3 4 4 4 4 4 6 8 8 7 6 6 5 4 5 6 7 7 6 6 6 6 7 7 6 5 4 4 4 5 5 5 5 6 6 7 7 7 8 8 8
12 11 9 9 9 7 5 4 3 2 2 1 1 0 1 1 2 2 2 2 1 2 5 5 3 3 4 5 5 5 6 6 6 5 2 2 3 1 2 3 1 2 3 3 1 1 3 5 4 4 4 5 6 7 6 6 6 6 5 5 5 5 6 7 6 6 6 6 5 5 4 3 3 4 4 5 6 6 7 7 7 7 8 8 9 10 10
14 12 10 10 10 8 5 3 2 1 1 1 0 1 1 1 1 2 2 2 2 1 2 3 3 4 6 6 7 8 7 6 5 4 2 2 4 3 2 2 1 3 3 1 1 1 4 5 4 4 4 6 6 5 5 6 7 7 7 7 7 7 7 7 6 7 7 7 6 6 6 6 7 7 7 8 8 8 9 9 9 9 9 10 11 12 13
11 10 9 9 7 6 4 3 2 1 0 0 1 1 1 1 1 1 1 1 3 3 1 2 4 7 8 7 7 8 7 5 4 2 0 2 3 3 2 2 2 3 2 0 0 3 5 5 4 5 5 5 5 5 6 7 8 8 9 10 10 9 9 8 8 7 8 8 8 8 9 9 10 10 9 9 10 11 11 10 10 10 10 11 12 14 15
8 8 7 5 4 4 3 2 2 3 2 1 2 2 2 2 2 2 1 2 4 4 4 6 8 6 5 6 6 5 4 4 3 1 2 2 3 2 2 3 3 2 1 1 3 4 5 4 4 6 6 6 6 5 6 8 9 10 11 11 11 10 10 10 10 10 9 9 9 9 9 9 10 10 9 10 10 11 11 11 11 11 11 12 13 14 16
8 7 6 3 3 5 3 2 2 3 2 1 2 2 3 3 3 2 3 6 6 6 9 12 11 7 7 7 5 2 2 3 3 3 2 2 3 2 2 2 2 1 2 3 4 5 5 5 5 6 6 6 5 6 7 8 9 11 12 12 12 12 12 12 13 12 12 11 10 10 10 10 10 9 9 9 10 11 11 11 11 11 11 11 12 14 15
8 8 5 2 3 5 4 2 2 2 2 2 3 3 3 4 6 7 8 9 9 9 12 13 10 6 5 4 3 2 3 4 3 2 1 2 3 2 2 1 2 2 2 4 5 5 4 3 3 5 5 4 4 6 7 8 9 10 12 13 13 13 13 13 13 13 13 13 13 13 13 13 12 11 10 9 9 9 10 10 10 10 10 11 12 12 12
6 6 5 2 2 5 4 1 2 3 5 8 11 13 12 11 12 13 12 11 11 10 10 8 4 1 2 4 3 3 4 4 2 1 2 2 2 0 1 2 3 3 3 4 5 4 3 1 2 5 5 4 5 7 8 8 9 10 11 12 13 13 13 14 13 13 13 13 14 14 14 14 13 13 12 11 10 10 10 10 10 10 10 10 11 11 11
5 5 4 2 1 1 1 2 4 7 10 13 16 17 15 13 12 11 10 9 8 7 5 3 1 3 4 3 2 2 3 4 3 2 3 2 1 1 2 3 2 2 3 4 4 4 4 3 2 4 5 4 6 8 9 9 9 9 10 11 13 13 13 13 13 13 13 13 13 13 13 13 13 13 13 13 12 12 12 11 11 11 10 10 10 10 10
9 6 4 2 2 2 4 5 5 5 8 11 12 13 13 10 9 11 15 14 10 5 3 3 3 2 1 1 1 1 2 3 2 2 2 2 2 2 2 2 2 3 4 4 3 4 5 5 4 3 4 5 7 9 10 10 10 10 10 11 12 12 12 12 12 12 12 11 11 12 12 12 12 12 13 13 14 13 13 12 12 12 11 11 11 11 10
10 7 6 4 1 3 7 6 4 2 5 9 11 15 18 16 17 20 21 16 9 5 6 6 5 4 1 1 2 3 2 2 1 2 3 3 3 2 2 3 3 3 4 4 5 6 7 6 5 4 5 7 8 9 10 11 12 11 10 10 9 9 9 9 9 10 10 9 9 9 10 10 11 12 12 13 13 12 12 12 13 13 13 12 12 12 12
8 6 6 6 6 7 8 6 3 3 7 10 14 18 19 19 20 21 20 15 10 6 4 2 2 2 2 3 3 2 1 1 1 2 3 3 3 2 3 4 3 3 5 8 9 8 8 7 6 6 7 8 9 9 10 11 12 12 11 10 8 7 6 6 6 6 6 6 6 6 7 8 10 11 12 12 11 10 10 11 12 12 13 13 13 13 13
6 5 6 8 12 14 12 7 5 7 10 13 17 21 21 21 22 21 19 17 13 8 3 2 2 2 3 2 2 1 1 1 3 4 4 3 2 2 3 5 5 6 7 9 9 8 7 7 7 7 7 8 9 9 9 10 10 11 11 11 9 7 5 3 3 3 3 3 3 4 5 7 8 10 12 12 10 8 8 9 10 10 11 12 12 13 13
Wind_Direction
310 313 317 318 320 323 323 326 331 336 340 341 338 341 346 322 302 312 312 307 306 257 232 237 214 225 253 278 277 273 270 252 250 242 211 209 213 207 210 214 217 223 225 230 228 224 242 245 235 242 246 238 245 242 198 151 162 182 196 195 180 151 154 204 219 231 229 220 192 143 239 217 211 211 203 200 206 208 214 212 169 184 197 167 199 245 219
313 314 316 318 320 323 324 325 329 335 342 344 339 337 335 306 302 309 333 345 333 195 244 278 235 255 282 282 276 270 266 262 254 246 230 214 205 207 211 207 216 222 214 222 225 211 223 237 228 232 240 231 247 250 237 207 199 205 206 183 170 171 189 198 211 225 225 221 213 205 199 202 215 218 206 205 209 211 209 142 158 212 196 183 214 236 196
314 315 316 318 323 325 326 326 329 334 340 342 338 332 325 313 303 299 326 346 302 232 303 356 317 316 319 295 280 268 259 253 249 251 251 241 232 231 230 218 222 231 226 233 236 224 228 240 225 221 231 241 266 262 242 224 219 227 231 200 171 182 195 186 204 218 216 215 216 213 198 191 213 218 207 210 212 209 199 133 196 217 186 185 218 228 181
312 314 315 317 321 323 327 330 331 335 341 342 336 325 317 318 305 296 322 334 280 249 300 22 1 340 335 308 283 263 257 259 256 252 246 240 237 239 244 246 251 248 246 251 248 235 234 240 237 237 245 248 258 276 278 268 255 256 249 217 184 178 196 189 203 217 217 220 219 199 176 190 206 210 206 207 213 211 200 193 214 194 145 198 217 213 202
310 312 314 316 318 319 324 329 330 335 341 342 335 321 295 288 286 314 337 326 296 266 24 22 358 329 323 316 299 290 283 287 270 242 233 234 230 227 229 234 239 236 229 238 247 240 236 238 244 255 260 266 280 288 296 292 281 298 286 229 195 191 210 198 203 213 217 224 219 193 189 208 209 207 207 200 201 205 204 213 211 150 156 221 206 187 217
305 307 310 313 314 316 320 323 325 331 337 343 339 317 269 264 290 330 346 317 288 307 329 339 332 310 306 295 282 290 286 290 296 258 270 279 224 210 212 218 225 231 216 224 249 246 243 243 244 248 249 256 273 280 282 270 258 343 337 244 192 218 227 205 204 212 215 223 223 200 191 212 211 210 212 200 194 200 207 219 211 166 200 233 196 170 212
298 301 303 305 307 308 311 317 319 322 329 338 339 306 277 289 297 314 333 311 292 302 304 309 309 298 301 286 266 280 282 290 319 315 306 305 229 214 221 210 206 228 347 288 226 225 246 248 238 234 242 241 242 257 264 238 197 9 349 317 162 230 248 213 209 217 218 223 225 205 196 212 213 211 210 202 200 200 202 214 211 197 219 232 202 188 209
296 296 297 298 299 299 303 310 312 315 322 328 327 291 279 301 305 309 322 310 292 290 288 294 303 300 296 277 263 287 289 306 342 328 286 284 274 220 227 236 351 1 317 254 231 229 267 293 277 284 279 252 228 237 252 227 184 10 358 359 105 217 257 194 198 224 230 229 227 214 207 216 220 216 208 201 204 205 205 211 204 198 218 223 203 203 214
296 295 293 294 294 293 295 301 304 307 312 314 313 290 276 295 295 288 298 299 284 281 283 292 302 295 280 267 292 325 319 335 337 314 254 247 262 276 350 356 348 334 278 258 247 247 307 301 279 278 278 271 266 270 291 302 305 353 17 346 323 248 267 34 170 233 241 228 224 220 213 218 228 229 216 198 198 205 209 209 191 189 207 208 195 211 223
296 295 294 294 292 288 288 292 295 294 295 294 292 284 282 304 305 272 265 277 279 282 292 291 281 275 278 315 333 314 305 327 330 309 264 255 258 290 3 358 337 308 285 278 293 311 305 289 280 273 263 257 261 261 258 265 271 97 59 327 304 283 298 317 218 252 262 240 219 214 207 214 230 233 224 208 195 197 206 205 196 196 200 199 203 219 225
293 293 293 293 291 286 283 285 284 279 276 275 276 276 279 297 315 292 262 262 266 268 274 270 262 276 316 328 330 312 302 313 314 293 303 305 290 313 334 329 307 290 283 306 319 312 301 292 284 271 253 246 247 247 245 245 236 190 139 201 282 297 304 302 287 266 277 269 187 179 199 217 224 224 220 213 202 199 205 205 204 205 203 201 218 227 222
292 290 289 290 288 285 281 279 277 273 270 267 267 271 272 277 297 295 258 262 273 269 272 271 267 286 301 302 304 301 294 297 298 288 288 288 287 295 307 302 282 274 305 314 314 311 306 295 278 252 236 237 236 233 229 222 213 196 163 153 257 286 281 264 240 258 288 333 143 194 224 223 211 174 213 217 213 208 204 189 181 207 214 224 239 231 219
294 288 286 286 285 283 278 276 275 273 268 262 259 263 267 270 276 258 245 267 273 261 272 280 277 279 282 282 288 291 288 292 297 290 279 277 283 288 290 276 268 287 311 313 311 310 306 284 246 210 204 215 221 223 221 213 201 190 167 148 188 268 273 257 231 235 269 271 201 227 258 263 130 89 118 169 202 192 184 174 167 202 218 225 233 235 228
296 290 283 282 282 278 276 276 274 271 267 262 258 259 259 258 256 244 242 258 261 267 279 287 288 282 274 277 289 294 295 300 299 291 278 273 280 286 288 278 283 300 312 311 301 285 269 267 259 226 183 178 196 210 213 214 209 196 168 135 150 238 258 266 261 234 235 267 251 254 296 276 218 178 135 135 170 169 182 201 190 172 194 217 233 253 252
297 292 284 281 279 275 275 276 271 265 265 263 259 258 256 253 253 249 238 239 264 282 269 250 261 292 299 299 302 303 305 306 305 302 294 279 274 283 301 307 306 309 309 294 260 237 233 270 264 234 196 190 207 199 179 201 209 194 161 125 136 200 238 271 272 257 204 269 275 260 253 237 189 144 113 36 316 282 248 221 182 161 201 218 227 244 234
298 294 289 284 280 276 274 272 268 263 261 260 259 258 255 252 249 245 237 231 250 277 257 244 275 303 305 296 293 293 290 293 310 312 301 292 299 307 317 323 323 317 295 255 236 218 201 228 253 247 229 209 199 185 165 176 181 167 142 121 121 132 76 234 261 279 143 261 273 254 244 242 101 40 3 347 322 294 241 211 191 174 212 229 227 230 221
298 296 293 287 281 279 275 270 268 263 260 260 258 256 257 254 244 236 232 228 236 256 263 271 289 304 304 293 291 290 281 286 306 309 298 314 319 316 323 332 340 344 306 273 224 196 201 211 243 258 250 229 200 184 162 168 173 158 143 128 117 108 72 260 263 280 93 246 273 257 242 288 6 345 332 324 311 225 194 202 194 117 22 286 229 198 176
298 296 296 292 283 278 276 271 268 264 261 260 256 254 257 252 239 232 234 234 241 258 263 267 277 280 275 283 294 292 289 294 299 301 300 301 307 320 326 328 334 342 333 318 221 214 206 198 221 252 267 286 245 205 164 177 196 171 144 126 101 93 25 291 278 277 86 184 264 271 260 89 10 336 324 315 275 189 195 202 167 64 36 12 129 135 127
298 296 297 294 285 279 277 273 270 267 263 259 254 254 253 246 237 235 236 236 241 257 262 260 263 264 266 278 286 280 280 287 290 303 306 287 325 335 321 307 302 334 326 315 249 251 217 189 154 229 259 268 275 261 202 185 193 152 141 144 132 137 180 274 272 259 271 148 262 276 242 85 7 339 323 297 212 197 177 136 91 82 83 81 88 101 103
298 299 299 296 287 281 278 274 270 266 264 260 253 253 254 251 247 240 238 240 249 263 270 267 262 263 265 269 271 269 274 278 275 280 276 264 330 340 325 248 62 352 322 286 326 5 264 222 98 80 248 253 302 297 261 202 220 175 158 167 162 158 170 217 275 243 171 100 281 273 226 359 347 335 316 270 242 162 120 106 98 90 88 88 84 84 93
297 299 300 296 289 283 278 275 270 266 265 258 250 254 258 259 256 248 245 249 252 262 275 271 255 257 259 257 260 261 262 263 261 265 273 276 306 338 321 291 334 339 329 337 340 24 3 348 29 321 284 284 282 286 292 212 210 244 45 172 164 162 172 178 217 263 257 122 288 308 317 329 334 334 337 98 97 119 120 107 100 95 93 94 91 87 91
294 297 298 295 290 283 276 272 268 266 265 259 250 252 255 259 262 258 251 251 251 256 267 270 269 270 268 263 261 256 253 255 255 256 266 276 282 275 267 288 302 275 262 320 333 318 350 341 306 305 306 302 302 304 305 235 192 34 20 158 169 180 168 135 116 280 285 121 229 307 324 330 338 358 41 85 106 115 109 98 98 98 97 97 95 92 91
291 295 296 292 287 282 275 271 268 266 266 261 251 249 254 261 263 257 256 261 264 269 275 279 280 279 275 272 271 267 262 259 253 248 249 257 271 273 260 260 265 252 256 303 337 326 338 338 308 317 311 319 334 315 284 231 62 13 5 73 46 46 90 99 106 152 130 99 134 289 320 340 350 9 33 66 96 103 97 95 94 90 94 97 97 97 95
291 295 295 290 286 282 277 272 271 269 267 264 257 256 263 267 263 261 265 267 274 285 289 282 271 270 276 282 283 276 265 255 248 246 243 240 245 257 255 247 244 243 271 3 3 338 319 313 311 313 304 337 358 325 293 7 48 14 353 14 64 53 24 33 141 166 157 126 163 259 337 346 347 1 29 54 78 89 91 93 93 92 95 95 95 97 99
295 297 297 294 289 286 280 274 272 269 265 265 262 260 263 265 265 267 266 266 276 289 296 285 274 274 286 296 287 271 265 262 255 249 240 233 231 233 241 251 245 238 275 331 347 349 343 317 301 280 290 344 77 357 308 327 16 10 26 50 38 353 343 342 158 159 148 138 154 148 102 13 350 3 37 63 83 92 92 92 94 97 98 98 96 95 93
297 297 296 295 292 288 283 274 270 268 265 263 263 262 263 266 268 264 260 266 276 274 270 278 281 286 300 303 294 286 282 275 261 249 243 239 238 240 250 261 264 262 273 294 310 317 300 274 265 235 245 237 125 85 299 312 332 350 56 34 349 321 313 312 150 141 96 94 132 142 124 75 347 0 94 103 104 104 101 98 97 96 96 96 94 93 91
300 298 293 290 290 289 283 277 273 269 265 265 266 266 267 267 268 266 263 265 270 267 265 276 286 298 305 303 299 293 282 264 247 239 237 237 240 243 249 255 259 264 270 282 289 272 228 233 246 229 216 206 71 357 304 316 351 20 52 10 354 334 301 353 115 142 144 155 171 168 146 131 193 180 147 124 116 112 108 104 99 96 96 94 93 92 90
302 302 295 288 285 282 280 282 278 269 270 275 274 274 276 276 275 272 264 254 252 259 273 285 291 299 305 306 306 313 295 262 235 229 229 231 234 238 242 247 251 255 257 261 267 257 240 247 250 229 203 189 155 118 265 317 35 52 17 356 352 333 302 291 261 232 151 161 168 164 140 130 150 154 147 133 121 114 110 106 101 97 96 96 95 93 88
304 300 292 290 288 284 283 283 277 274 282 288 287 288 290 287 280 270 257 244 242 252 271 287 290 292 298 305 310 315 305 253 225 223 223 223 225 230 236 241 243 243 244 249 257 258 263 268 266 256 221 198 176 150 122 55 60 40 6 357 345 328 314 291 271 297 62 126 147 142 124 126 138 144 140 130 120 114 110 106 100 95 90 87 86 86 87
311 302 295 294 292 290 288 281 274 281 288 290 295 301 303 302 291 265 239 220 216 235 264 283 288 291 297 302 311 327 342 274 228 221 218 218 221 225 229 234 236 236 236 243 255 263 268 270 268 254 214 203 182 123 113 98 99 37 11 2 344 330 341 18 47 74 101 115 122 121 120 123 130 133 127 120 118 115 111 105 102 99 95 92 89 88 90
316 311 305 301 295 292 293 286 283 292 291 289 293 295 296 330 359 161 172 167 178 255 283 277 280 294 298 299 311 329 329 300 224 214 218 218 221 227 227 225 226 226 225 230 246 257 262 264 268 257 166 167 126 78 71 113 134 25 0 358 348 344 2 44 77 92 103 112 114 111 109 112 118 118 111 111 116 117 114 113 113 112 111 109 107 105 103
323 317 310 308 301 296 294 290 289 289 283 281 284 280 279 298 306 213 189 191 264 298 299 284 287 298 297 304 321 331 330 213 186 196 212 214 214 218 219 219 222 225 226 233 246 253 258 263 259 58 53 71 107 83 48 62 98 25 353 352 3 19 31 51 78 93 101 110 113 107 96 97 105 107 104 110 116 115 114 116 116 114 113 112 110 111 109
323 316 310 309 304 299 294 290 289 287 282 284 288 288 284 279 256 235 234 243 266 282 281 281 301 299 288 306 323 346 23 156 181 172 180 196 196 192 194 203 214 223 223 225 244 274 286 301 97 82 53 48 67 94 64 44 34 29 13 0 14 39 51 60 74 84 88 91 93 88 74 77 92 102 110 113 110 105 107 109 108 108 107 104 101 100 97
318 314 314 314 310 304 299 296 292 287 288 290 290 287 276 243 218 230 235 237 250 271 266 265 286 297 301 305 314 357 12 355 187 173 169 177 176 170 169 182 197 208 206 208 253 307 303 18 52 65 48 38 45 79 70 42 24 31 31 16 16 41 59 65 70 74 75 78 84 83 77 78 87 94 99 99 94 92 93 91 87 87 82 75 74 74 70
325 322 326 327 324 316 310 306 295 291 299 302 268 162 190 214 215 229 231 229 237 250 248 249 256 288 313 309 290 0 359 354 186 182 164 157 164 163 153 159 181 203 184 190 282 347 32 31 22 30 34 33 47 67 61 33 20 26 32 24 18 30 51 63 68 67 67 78 93 97 97 96 95 90 86 86 86 85 82 77 74 73 71 68 65 55 50
334 336 337 335 329 321 311 296 278 301 334 13 98 179 236 237 246 262 223 212 219 232 261 293 260 255 305 313 303 336 347 357 146 160 144 146 158 170 167 157 140 92 112 110 42 37 31 13 23 70 65 49 55 58 43 27 22 22 27 31 32 40 63 80 85 88 89 92 98 104 107 109 108 103 93 84 78 75 75 76 75 73 74 74 64 49 45
342 345 341 331 328 325 307 278 316 339 353 0 345 325 277 261 276 290 254 222 227 237 251 276 263 258 280 289 292 318 334 350 55 121 149 145 142 165 181 160 118 132 111 75 76 63 36 34 66 82 70 59 60 52 38 30 26 19 23 39 50 63 89 101 108 115 114 106 102 104 103 100 104 106 93 74 62 50 43 47 49 51 51 48 40 33 28
352 346 341 339 342 353 331 317 323 328 329 330 337 334 292 269 280 273 246 231 236 237 236 243 261 266 256 244 275 302 318 324 328 331 165 156 141 162 184 129 107 138 120 82 78 52 37 59 80 80 69 57 49 43 36 33 32 25 28 51 66 78 113 130 129 124 114 101 104 115 104 82 90 99 92 87 85 76 59 53 48 44 39 31 22 14 4
350 343 346 352 355 346 320 314 316 319 320 322 328 324 273 256 271 249 213 206 228 234 229 237 252 246 222 242 287 304 306 283 299 338 156 168 170 175 170 136 116 134 127 106 75 32 68 94 86 75 78 63 41 37 34 32 36 37 38 64 85 95 115 143 161 169 164 144 144 149 146 136 134 126 114 109 108 102 96 83 58 41 32 25 21 19 16
351 350 351 351 351 344 319 303 301 307 313 309 304 299 265 248 244 222 197 219 235 217 210 231 257 253 239 242 280 307 295 257 282 319 34 148 186 210 149 128 105 106 110 99 45 26 101 112 93 77 81 63 44 42 42 40 43 45 47 74 103 107 109 119 131 142 142 137 137 142 144 146 149 141 124 116 109 97 82 67 54 47 45 40 38 35 30
347 345 339 332 336 340 329 309 300 293 282 276 266 279 276 250 235 223 230 266 268 202 206 223 251 263 242 226 231 264 285 289 287 281 284 29 21 35 124 114 79 92 102 88 26 23 100 98 90 87 81 63 52 49 50 57 63 57 56 74 96 105 109 113 116 121 126 129 130 132 130 124 120 112 101 93 88 83 75 66 61 60 57 54 52 46 40
333 325 321 323 331 342 345 344 352 347 294 288 273 247 252 250 250 228 220 245 311 313 213 217 256 299 298 275 256 263 281 301 297 266 246 24 20 33 97 94 64 97 105 78 301 130 109 98 94 95 82 69 63 58 55 60 64 60 62 73 86 94 99 102 104 108 113 115 113 107 99 93 90 86 81 77 74 73 71 68 64 62 62 62 59 54 49
329 325 327 331 340 353 358 353 354 358 346 45 14 345 313 304 334 316 242 271 324 333 310 279 314 321 314 291 268 264 274 290 298 282 129 34 16 28 70 70 65 86 96 295 225 115 105 99 105 108 93 72 60 56 55 60 65 66 69 74 80 86 87 86 88 91 93 94 93 88 82 79 78 77 77 80 78 74 71 67 64 66 69 67 60 54 49
345 343 346 346 345 349 351 347 352 7 26 35 5 354 346 342 352 358 339 330 339 344 336 332 336 333 310 290 283 279 280 290 305 358 45 35 22 27 55 67 65 56 45 70 98 98 92 90 100 101 89 70 59 55 57 64 72 75 76 77 79 80 80 80 81 83 85 88 89 86 81 77 74 74 78 83 80 75 70 67 66 71 74 66 55 48 44
7 6 6 7 353 352 357 358 354 5 20 0 350 357 348 329 316 302 309 314 309 304 315 321 317 296 279 290 300 300 311 346 29 43 21 32 46 31 31 75 88 64 58 88 102 104 103 103 99 90 75 59 55 61 65 70 77 81 82 81 78 76 75 76 76 76 78 80 81 80 78 75 71 69 72 75 75 71 67 66 65 68 67 60 52 47 43
27 23 23 43 13 1 7 17 12 15 25 336 308 287 274 289 290 287 292 294 286 286 303 310 300 275 281 312 336 330 330 0 42 45 345 57 74 33 336 59 83 62 81 103 106 101 96 82 65 67 62 44 46 62 68 71 77 82 82 81 78 76 75 75 74 73 72 71 70 70 68 64 62 61 63 68 69 65 62 60 57 55 54 51 49 48 45
38 28 32 68 30 4 9 27 331 304 285 282 289 292 293 296 298 300 300 290 279 286 304 310 292 250 21 8 357 343 352 18 50 14 0 56 90 319 325 63 59 46 77 97 91 86 92 73 31 49 49 37 44 61 68 74 80 82 80 79 78 78 78 77 76 76 74 70 68 67 64 61 59 58 60 64 67 64 61 59 54 49 47 45 43 44 46
39 32 35 59 73 351 334 304 306 306 295 289 295 306 308 294 284 300 324 327 312 310 324 329 146 106 63 36 12 351 1 17 33 31 28 55 74 21 38 62 49 27 60 86 91 96 113 122 76 52 46 45 58 65 68 72 76 78 79 78 75 73 75 76 76 78 78 75 71 68 65 61 60 58 58 61 62 61 59 58 54 51 51 50 45 44 45
46 53 51 66 177 236 295 290 278 291 301 299 307 327 334 319 311 339 360 3 358 6 50 80 91 86 30 332 1 43 15 6 18 33 32 43 52 43 41 59 59 51 61 82 105 111 110 109 99 77 67 69 71 70 69 70 70 70 73 74 71 70 72 75 75 77 79 76 71 68 63 59 56 56 56 56 56 55 54 53 50 48 49 49 46 45 44
41 50 42 34 22 323 322 309 269 278 326 331 341 352 355 350 352 1 7 8 11 48 85 81 65 61 45 326 33 61 45 7 20 45 39 41 46 44 43 55 63 69 80 93 99 99 98 98 100 94 84 79 78 74 70 68 68 66 66 67 69 71 73 73 75 79 80 77 72 67 61 54 50 48 46 45 45 45 47 48 48 46 45 43 42 40 37
28 33 26 23 13 349 338 333 329 347 348 347 351 356 357 354 354 1 9 15 25 51 79 63 20 32 47 32 35 43 312 306 33 63 55 38 23 30 58 67 63 67 82 86 85 86 89 89 91 92 86 77 75 73 68 65 64 62 59 58 61 66 72 74 76 79 80 77 70 61 50 42 37 36 35 34 35 37 42 45 45 43 42 40 37 34 32
19 5 3 11 11 6 3 1 353 346 347 351 356 0 3 2 2 9 23 34 40 45 51 27 28 61 65 41 16 320 300 24 53 56 52 41 22 28 56 66 64 65 74 78 77 77 76 75 78 83 80 71 66 65 62 60 59 57 54 51 49 48 54 68 78 78 77 71 57 43 35 29 25 24 25 26 29 35 39 39 36 34 33 33 33 32 30